Location: Cicognara
(44.9500°N, 10.4667°E)
Time: 13:37:32
(UTC+00:00)

USA 229 DEB - Pass Details

Date: 20 June 2021
Orbit: 955 x 1257 km, 63.4° (Epoch: 25 July)

Event Time Altitude Azimuth Distance (km) Brightness Sun altitude
Exits shadow 23:38:38 38° 207° (SSW) 1,485 4.0 -21.5°
Maximum altitude 23:41:21 82° 126° (SE) 1,029 3.5 -21.4°
Drops below altitude 10° 23:48:10 10° 39° (NE) 2,904 6.8 -21.3°
Sets 23:50:55 0° 39° (NE) 3,908 7.6 -21.2°
